Wind_Speed
68 66 66 66 67 67 67 66 66 66 66 67 67 63 54 46 41 39 37 36 36 37 38 39 41 42 42 42 42 42 42 42 42 41 41 40 39 39 38 38 38 38 38 37 37 36 36 36 36 36 36 37 37 37 37 37 37 36 36 35 35 35 35 34 34 33 33 32 32 32 33 34 35 36 37 37 38 37 37 37 37 38 38 39 39 40
68 67 67 68 68 67 67 65 64 64 65 67 65 60 51 44 40 37 36 35 35 36 37 38 39 40 41 41 41 41 41 42 42 42 41 40 39 39 39 39 39 39 38 38 37 37 36 36 37 37 37 38 38 38 38 38 37 37 36 36 36 36 35 34 34 33 33 32 32 32 33 34 35 36 37 38 38 38 38 38 38 38 39 39 40 40
68 68 68 69 69 68 67 65 64 64 65 66 63 58 50 44 39 36 34 33 33 34 35 36 38 39 40 40 41 41 41 42 42 42 41 40 39 39 39 39 39 39 39 38 37 37 37 37 37 38 38 39 39 39 39 38 37 37 36 36 36 36 35 34 33 33 33 33 33 33 33 34 35 36 37 38 38 38 38 38 38 39 39 40 40 40
67 68 69 70 70 69 68 66 65 65 66 65 62 56 48 43 39 36 34 32 32 33 34 35 36 37 39 39 40 41 41 42 42 42 41 40 39 39 39 39 39 39 38 38 38 37 38 38 38 39 39 40 40 39 39 38 37 37 36 36 36 36 35 34 33 33 33 33 34 34 34 35 35 36 37 38 38 38 39 39 39 40 40 40 41 41
67 69 70 71 70 69 68 67 66 67 67 65 61 54 47 42 39 36 34 32 31 32 33 34 35 37 38 39 40 41 41 42 42 42 41 40 39 39 38 38 38 38 38 38 37 38 38 39 39 39 40 40 40 39 39 37 36 36 36 36 36 36 35 34 33 33 33 34 34 35 35 36 36 37 37 37 38 38 38 39 40 40 41 41 41 41
67 69 71 71 71 69 68 67 68 68 68 66 61 53 47 42 39 36 34 32 31 32 33 33 35 36 38 39 40 41 42 42 42 41 40 39 39 38 38 38 38 37 37 37 37 37 38 38 39 39 40 40 40 39 38 37 36 35 36 36 36 35 34 33 33 33 33 34 35 36 36 36 37 37 37 37 38 38 38 39 40 41 41 42 42 42
67 69 71 71 70 69 68 68 68 69 68 66 60 53 46 42 39 36 34 32 32 32 32 33 34 36 38 39 41 41 42 42 41 41 40 39 38 38 37 37 37 37 36 36 36 36 37 37 38 38 39 39 39 38 37 36 35 35 35 35 35 34 34 34 33 34 34 35 35 36 37 37 37 38 38 38 38 38 38 39 40 41 42 42 42 42
68 70 71 71 70 69 68 68 68 68 68 65 59 51 45 41 39 37 35 33 32 32 32 33 34 36 38 39 41 41 41 41 41 40 39 38 37 37 37 37 36 35 35 35 35 35 36 36 37 37 38 38 37 36 35 35 34 34 34 34 34 34 34 34 35 35 35 35 35 36 37 37 38 38 38 38 38 38 39 40 40 41 42 42 42 42
69 70 71 70 69 68 68 67 67 67 67 63 57 49 44 41 39 37 35 34 32 32 32 33 34 36 38 39 40 41 41 40 39 38 38 37 37 36 36 35 35 34 34 34 34 34 35 35 36 36 37 36 36 35 34 34 34 34 34 34 34 35 35 35 36 35 34 34 35 36 37 37 38 38 38 38 39 39 40 40 41 41 42 42 42 42
69 70 70 70 69 68 67 67 66 66 65 61 55 48 43 40 38 37 35 34 33 32 32 33 35 36 37 38 39 39 39 39 38 38 37 36 36 35 34 34 33 33 33 33 33 34 34 35 35 36 36 35 35 34 34 34 34 34 34 34 35 35 36 36 36 35 34 34 34 35 36 37 38 38 39 39 40 40 41 41 42 42 42 43 42 42
68 69 69 69 67 66 66 66 65 64 62 59 53 47 43 40 39 37 35 34 33 33 33 34 36 37 37 38 38 39 39 38 38 37 36 35 34 33 32 32 32 32 33 33 34 34 34 35 35 35 35 35 34 34 34 34 34 34 34 35 36 36 36 36 35 34 33 33 34 35 36 37 38 38 39 40 40 41 42 42 42 43 43 43 43 43
67 67 68 67 66 65 65 64 62 61 59 55 50 46 42 40 38 37 36 35 34 33 34 35 36 37 37 38 38 38 39 38 38 37 35 33 32 31 31 32 32 33 33 34 34 35 35 35 35 35 35 34 34 34 34 34 34 34 35 36 36 37 36 36 34 33 33 33 34 35 36 37 38 39 40 41 41 42 43 43 43 44 44 44 44 43
65 65 65 65 64 64 63 62 60 58 55 51 47 43 41 40 38 38 37 36 35 34 35 36 37 38 37 37 38 39 39 39 38 36 34 32 31 31 31 32 33 33 34 35 35 36 36 36 35 35 34 34 34 34 34 34 34 35 35 36 37 37 36 35 34 33 33 34 35 36 36 37 38 39 40 41 42 43 43 44 44 44 44 44 44 43
63 63 63 62 62 62 61 60 58 56 52 48 45 42 41 40 39 38 38 36 35 35 35 37 38 38 38 38 38 39 39 39 38 36 33 31 31 31 32 33 34 35 36 37 37 37 37 36 36 35 35 34 33 33 34 34 34 35 35 36 36 36 35 34 34 33 34 34 35 36 37 38 39 40 41 42 43 43 44 44 44 44 44 44 44 43
61 60 59 59 58 58 58 57 56 54 51 47 44 42 41 40 39 38 38 37 36 35 36 38 39 39 39 39 39 39 40 40 39 37 34 33 32 32 33 35 36 37 38 38 38 38 38 37 36 36 35 34 33 33 33 33 34 34 35 35 35 35 34 34 33 33 34 35 36 37 37 39 40 41 42 43 43 44 44 44 44 44 44 44 43 43
57 55 54 54 53 53 54 54 54 53 50 46 43 42 41 40 40 39 38 36 36 36 37 38 39 40 40 39 40 40 40 40 40 38 36 35 33 33 34 36 38 39 39 39 39 39 38 38 37 36 35 34 33 32 32 33 33 33 34 34 34 33 33 33 33 34 35 36 36 37 38 40 41 42 42 43 43 44 44 44 44 44 44 43 43 43
53 51 49 49 49 50 50 51 52 51 48 45 43 42 41 41 40 39 37 36 36 36 37 39 40 40 40 41 41 41 41 41 40 39 37 36 35 34 35 37 39 40 40 40 40 40 39 38 37 36 35 34 33 32 32 32 32 33 33 33 33 33 33 33 33 34 35 36 37 38 39 40 41 42 43 43 44 44 44 44 44 43 43 43 43 43
48 47 46 46 46 47 47 48 48 47 46 44 43 42 42 41 40 38 37 36 36 37 38 40 41 41 41 41 41 41 41 41 41 40 39 37 36 36 36 37 39 40 40 40 40 40 39 39 37 36 35 34 33 32 32 32 32 32 32 32 32 32 32 33 34 35 36 37 38 39 40 41 42 43 43 43 43 44 43 43 43 43 43 43 43 43
45 44 44 44 45 45 46 46 46 45 44 43 43 42 42 41 40 38 37 36 37 38 40 41 42 42 42 43 43 42 42 41 41 40 39 39 38 37 37 37 39 39 40 40 40 40 40 39 38 37 35 34 33 32 32 32 32 32 32 32 32 33 33 34 35 36 37 38 39 40 41 42 42 42 43 43 43 43 43 43 43 43 43 42 42 42
43 43 44 44 45 45 45 45 44 43 42 43 43 43 43 41 39 37 36 37 38 40 42 43 43 44 44 44 44 43 42 42 41 41 40 39 39 38 38 38 38 39 40 40 40 40 40 39 38 37 36 35 34 33 33 32 32 33 33 33 33 33 34 35 36 37 38 39 40 41 41 42 42 42 42 43 43 43 43 43 43 42 42 42 42 42
43 43 44 44 45 45 45 43 42 42 42 43 43 43 43 41 39 37 36 37 39 41 43 44 45 45 45 45 45 44 43 42 42 41 41 40 40 39 38 38 39 39 40 40 41 41 40 40 39 38 37 36 35 34 33 33 33 33 33 33 34 35 36 37 37 38 39 40 40 41 41 41 42 42 42 42 43 43 43 43 42 42 42 42 42 41
43 44 44 44 45 45 44 43 42 42 42 43 43 43 42 40 38 37 37 38 40 42 44 45 46 46 45 45 45 45 44 43 42 42 41 41 40 40 39 39 39 40 41 41 41 41 41 40 39 38 37 36 35 35 34 34 34 33 34 34 35 36 37 38 38 39 39 40 40 41 41 41 41 42 42 42 43 43 43 42 42 42 42 41 41 40
44 44 44 45 45 44 43 43 42 42 43 44 44 43 42 39 38 37 37 39 41 43 44 45 46 45 45 45 45 45 44 43 42 42 41 41 40 40 39 40 40 41 42 42 42 42 42 41 40 39 38 37 36 35 34 34 34 34 35 36 36 37 38 38 39 39 40 40 40 40 41 41 42 42 42 43 43 43 43 42 42 42 41 41 40 39
44 44 45 45 45 44 44 43 43 43 44 44 44 43 41 39 38 37 38 40 42 43 45 45 45 44 44 44 44 44 44 43 42 42 41 41 41 40 40 40 41 42 42 42 42 42 42 41 39 38 37 37 36 35 35 34 35 35 36 37 37 38 38 38 39 39 39 40 40 41 41 41 42 42 43 43 43 43 43 42 42 41 41 40 39 38
43 44 45 45 45 45 45 44 44 44 45 45 44 42 40 38 38 38 39 41 43 44 45 44 44 44 44 44 44 44 44 43 42 42 41 41 41 40 40 40 41 42 42 43 42 42 41 40 39 38 37 36 36 35 35 35 35 36 37 37 37 38 38 38 38 39 39 40 40 41 41 42 42 43 43 43 43 43 43 42 41 41 40 39 37 36
42 43 44 45 46 46 45 45 45 45 45 44 43 41 39 38 38 39 41 42 44 44 44 44 44 44 44 44 44 44 44 43 43 42 42 41 41 41 41 40 41 42 42 42 41 40 39 38 37 37 36 36 35 35 35 36 36 36 37 37 37 37 37 38 38 39 39 40 41 41 42 42 43 43 43 43 43 43 42 42 41 40 38 37 36 35
41 43 44 45 46 46 45 45 45 45 44 43 41 40 39 38 39 40 42 43 44 44 44 44 44 44 44 44 44 44 44 43 43 43 42 42 41 41 41 41 41 41 41 41 40 38 37 37 36 35 35 35 35 35 35 36 36 36 36 36 36 37 37 38 38 39 40 40 41 42 43 43 43 44 44 44 43 43 42 41 40 38 37 36 35 33
42 44 45 45 45 45 44 44 44 43 43 42 41 40 39 39 40 41 42 43 43 44 44 44 44 44 45 45 45 44 44 44 44 43 43 42 42 41 41 41 41 41 40 39 38 37 36 35 35 34 34 34 35 35 35 35 35 35 35 35 36 36 37 38 39 39 40 41 42 43 43 44 44 44 44 43 43 42 41 40 39 37 36 35 33 32
44 45 45 45 44 44 43 43 43 43 42 42 41 40 40 40 40 41 42 42 43 44 44 44 45 45 45 45 45 45 45 44 44 44 44 43 42 41 41 40 40 39 38 37 36 35 34 33 33 33 34 34 34 34 34 34 34 34 35 35 36 37 38 38 39 40 41 42 43 43 44 44 44 44 43 43 42 41 40 39 37 36 35 34 33 32
45 45 44 44 44 43 43 43 42 42 42 41 41 40 40 40 40 41 41 42 43 43 44 44 45 45 45 45 45 45 45 45 44 44 43 42 41 40 40 39 39 38 37 35 34 34 33 33 33 33 34 34 34 34 34 34 34 34 35 36 37 37 38 39 40 41 42 43 43 44 44 44 43 43 43 42 41 40 39 37 36 35 34 33 32 31
44 44 44 44 43 43 43 43 42 42 42 41 40 40 39 40 40 40 41 42 43 44 44 45 45 45 45 45 45 45 44 44 43 42 41 40 40 39 39 38 37 37 35 34 33 33 33 33 33 33 34 34 34 34 33 34 34 35 36 36 37 38 39 40 41 42 43 43 44 44 44 43 43 42 42 41 40 39 37 36 35 34 33 32 32 31
43 43 43 43 44 44 44 43 43 42 41 40 40 40 40 40 40 41 42 43 44 44 45 45 45 45 45 45 44 43 43 42 41 40 39 39 39 39 38 37 37 36 35 34 33 33 33 33 34 33 33 33 33 34 34 34 34 35 36 37 38 39 40 41 42 43 43 44 44 44 43 43 42 41 41 40 39 38 36 35 34 33 32 32 31 31
42 42 43 43 44 44 44 44 43 42 41 40 40 40 40 40 41 42 43 44 45 45 45 45 45 45 44 44 43 42 42 41 40 39 38 38 38 38 38 37 36 35 35 34 34 34 34 34 34 33 33 33 33 33 34 34 35 36 36 37 38 40 41 41 42 43 43 43 43 43 43 42 41 40 40 39 38 37 35 34 33 33 32 32 32 31
42 42 42 43 44 44 44 44 44 42 41 41 41 41 41 42 42 43 44 45 46 46 46 45 45 44 43 42 42 41 40 39 39 38 38 38 38 38 37 37 36 36 35 35 35 35 35 34 34 34 33 33 33 34 34 34 35 36 37 38 39 40 41 42 42 43 43 43 43 42 42 41 40 40 39 38 37 36 35 34 33 33 32 32 32 32
42 42 43 43 44 44 44 44 43 42 41 41 41 42 42 43 44 45 46 47 47 46 46 45 44 43 42 41 40 40 39 38 38 38 38 38 38 38 37 37 37 36 36 36 36 35 35 35 34 34 33 33 34 34 34 34 35 36 37 38 39 40 42 42 43 43 43 43 42 42 41 40 40 39 38 37 36 35 34 34 33 33 33 32 32 32
43 43 43 43 43 44 44 44 43 42 42 42 43 43 44 45 46 47 48 48 47 47 46 45 44 43 42 41 40 39 39 38 38 38 38 38 38 38 38 38 37 37 37 37 36 36 35 35 35 34 34 34 34 34 34 35 35 36 37 39 40 41 42 42 42 43 43 42 42 41 40 40 39 38 37 36 35 34 34 34 33 33 33 33 33 33
44 43 43 43 43 44 44 44 43 42 42 43 44 45 46 47 48 49 49 49 48 47 46 45 43 42 41 41 40 39 39 39 39 39 39 39 38 38 38 38 38 38 37 37 37 36 36 35 35 35 34 34 34 34 34 35 35 36 37 39 40 41 42 42 42 42 42 42 41 41 40 38 38 37 36 35 35 34 34 34 34 34 34 33 33 33
44 44 44 44 44 44 44 43 43 43 44 45 46 47 48 49 50 50 50 49 49 47 46 45 43 42 42 41 40 40 39 39 39 39 39 39 39 39 39 39 39 39 38 37 37 36 36 35 35 35 35 34 34 34 34 35 35 36 38 39 40 41 41 42 42 42 42 41 41 40 39 38 37 36 35 35 35 35 34 34 34 34 34 34 33 33
46 45 45 45 45 45 45 44 44 45 46 47 48 49 50 51 51 51 50 50 49 48 46 45 44 43 42 41 41 40 40 40 39 39 40 40 40 40 40 40 40 39 38 38 37 37 36 36 35 35 34 34 34 34 35 35 36 37 38 39 40 41 41 41 41 41 41 40 40 39 38 37 36 36 35 35 35 35 35 35 35 35 34 34 34 33
47 47 46 46 46 46 45 45 46 47 48 49 51 51 52 52 52 51 51 50 49 48 46 45 44 43 43 42 41 41 40 40 40 40 40 41 41 41 41 40 40 39 38 38 37 37 36 36 35 35 35 34 34 35 35 36 37 38 39 39 40 40 41 41 41 41 40 40 39 38 37 37 36 36 36 36 36 36 36 36 35 35 35 34 34 33
48 48 47 47 47 47 47 47 48 49 51 52 52 53 53 52 52 51 51 50 49 48 46 45 45 44 43 43 42 41 41 41 41 41 41 41 41 41 41 41 40 39 38 37 37 37 36 36 35 35 35 35 35 35 36 36 37 38 39 39 39 40 40 40 40 40 39 39 38 37 37 37 36 36 36 36 36 36 36 36 36 36 35 35 34 33
49 48 48 48 48 48 48 49 50 51 52 53 53 53 53 53 52 51 51 50 49 48 47 46 45 45 44 43 43 42 42 42 42 42 42 42 42 42 41 41 40 39 38 37 37 36 36 36 35 35 35 35 35 35 36 37 38 38 39 39 39 40 40 40 39 39 38 38 38 37 37 37 37 37 37 37 37 37 37 37 36 36 35 35 34 34
49 49 49 49 49 49 50 51 52 53 53 54 54 54 53 53 52 51 51 50 49 48 47 46 46 45 45 44 44 44 43 43 43 43 43 43 42 42 41 41 40 39 38 37 36 36 36 36 35 35 35 35 35 36 36 37 38 38 39 39 39 39 38 39 39 39 38 38 37 37 37 37 37 37 37 37 37 37 37 37 37 36 36 35 35 34
50 50 50 50 50 51 51 52 53 53 54 54 54 54 53 53 52 51 51 50 49 48 48 47 47 46 46 46 45 45 44 44 44 44 43 43 42 42 41 40 39 38 38 37 36 36 36 36 35 35 35 36 36 36 37 37 38 38 39 39 39 38 38 38 38 38 38 38 38 37 37 37 38 38 38 38 38 38 38 37 37 37 36 36 35 35
51 51 51 51 51 52 52 53 53 53 54 54 54 54 53 53 52 52 51 50 50 49 49 49 48 48 47 47 47 46 45 45 45 44 44 43 42 41 40 39 39 38 37 37 36 36 36 35 35 35 36 36 36 37 37 38 38 38 38 38 38 38 38 38 38 37 38 38 38 38 38 38 38 38 38 38 38 38 38 38 37 37 37 36 36 35
52 52 52 52 52 52 53 53 53 54 54 54 54 54 53 53 52 52 51 51 50 50 50 50 49 49 49 48 47 46 46 45 44 44 43 43 42 41 40 39 38 37 37 36 36 36 36 35 35 36 36 36 37 37 38 38 38 38 38 38 38 38 38 38 38 37 38 38 38 38 38 38 38 38 39 39 39 39 38 38 38 38 37 37 37 36
53 53 52 52 52 53 53 53 53 54 54 54 53 53 53 53 52 52 52 52 51 51 51 51 50 50 49 48 47 46 45 45 44 43 42 42 41 40 40 39 38 37 36 36 36 36 36 36 36 36 36 36 37 37 38 38 38 38 38 38 38 38 38 38 38 38 38 38 38 39 39 39 39 39 39 39 39 39 39 39 38 38 38 38 38 37
53 53 53 53 53 53 53 53 53 53 53 53 53 53 53 53 53 53 52 52 52 52 52 51 50 49 48 47 46 45 45 44 43 42 42 41 40 40 39 38 37 37 36 36 35 35 36 36 36 36 36 37 37 37 38 38 38 38 38 38 38 38 38 38 38 38 39 39 39 39 39 39 39 39 39 39 39 39 39 39 39 39 39 39 39 39
53 53 53 53 53 53 53 53 53 53 53 53 53 53 53 53 53 53 53 53 52 52 51 50 49 48 47 46 45 44 44 43 42 42 41 40 40 39 38 38 37 36 36 35 35 35 35 36 36 36 37 37 37 37 38 38 38 38 38 38 38 38 38 39 39 39 39 39 40 40 40 40 40 39 39 40 40 40 40 40 40 40 40 40 40 40
53 53 52 52 52 52 52 52 52 52 52 52 52 53 53 53 53 52 52 52 51 50 49 48 47 46 45 45 44 43 42 42 41 40 40 39 39 38 37 37 36 35 35 35 35 35 35 35 36 36 37 37 37 37 38 38 38 38 38 38 38 38 39 39 39 39 40 40 40 40 40 40 40 40 40 40 40 41 41 41 41 41 41 41 41 40
52 52 52 52 52 52 52 52 51 51 52 52 52 52 52 52 51 51 50 49 48 48 47 46 45 44 44 43 42 41 41 40 39 38 38 38 37 36 36 36 35 35 34 34 34 35 35 35 36 37 37 37 37 37 37 38 38 38 38 39 39 39 39 39 40 40 40 40 41 41 41 41 41 41 41 41 41 41 42 42 42 42 42 41 41 41
Wind_Direction
261 261 262 263 263 264 266 268 269 271 272 272 272 271 272 273 272 269 267 266 267 268 269 270 271 272 271 269 266 263 262 262 263 264 266 267 269 270 270 271 272 272 273 273 274 276 278 280 281 283 284 285 287 288 289 290 291 292 292 292 292 292 293 294 295 297 298 300 302 304 306 308 310 312 314 316 318 320 321 322 322 323 324 324 325 325
262 262 263 263 263 263 265 267 269 270 271 270 270 270 271 272 270 267 264 264 266 267 269 270 271 271 270 268 266 263 262 262 263 264 266 267 268 269 270 271 272 272 273 273 274 276 278 280 281 283 284 285 286 287 288 289 290 290 290 290 290 291 292 293 294 296 297 299 301 303 306 308 311 312 314 316 318 320 321 321 322 323 323 324 324 324
262 262 263 264 264 263 264 266 268 269 270 270 269 270 271 271 268 264 262 263 264 267 269 271 272 271 270 268 266 263 262 262 263 264 266 267 268 269 270 271 272 273 273 274 275 277 278 280 281 283 284 284 285 286 287 288 288 288 288 288 288 289 290 291 293 295 296 298 301 303 306 308 311 313 315 316 318 319 320 321 321 322 322 323 324 324
263 262 263 264 264 263 264 265 267 269 270 269 269 270 270 269 265 261 259 260 263 267 270 271 272 272 270 268 265 263 262 262 263 264 265 266 268 269 270 272 272 273 274 274 275 277 278 280 281 282 283 284 284 285 286 286 286 286 286 286 286 287 288 290 291 293 295 297 300 302 305 308 311 313 315 317 318 319 320 320 321 321 322 322 323 323
263 263 263 263 263 263 265 266 268 269 270 269 269 269 269 267 263 258 257 258 262 266 270 271 272 272 270 268 265 263 262 262 263 264 265 266 268 269 270 271 272 273 274 275 276 277 279 280 282 283 283 284 284 284 284 285 284 284 284 284 284 285 286 288 290 292 294 296 299 301 304 308 310 313 314 316 317 318 319 320 320 321 321 322 322 322
263 263 263 263 263 264 265 267 268 269 269 269 269 268 268 265 261 256 255 257 261 265 269 271 272 272 271 268 265 263 263 263 263 264 265 266 267 269 270 271 272 273 274 275 277 279 280 281 282 283 284 284 284 284 284 284 283 282 282 282 282 283 284 286 288 290 293 295 298 301 304 307 310 312 314 315 317 318 318 319 319 320 320 321 321 322
263 263 263 263 263 264 265 267 268 269 269 268 268 268 267 264 259 254 253 255 259 263 268 271 273 273 271 268 266 264 263 263 263 264 264 266 267 268 270 271 272 273 275 277 279 280 282 283 284 284 284 284 284 284 284 283 282 281 280 280 280 282 283 285 287 289 292 295 298 301 304 307 309 311 313 315 316 317 318 318 318 319 320 320 321 321
263 263 262 262 263 264 265 266 267 268 268 268 267 267 266 262 257 253 251 253 257 262 267 271 273 273 272 269 266 263 262 262 262 263 264 265 267 269 270 271 272 274 276 279 281 282 283 284 285 285 285 285 285 285 284 282 280 279 278 278 279 280 282 284 286 288 291 295 298 302 304 307 309 310 312 314 315 316 317 317 317 318 319 319 320 320
263 263 263 263 263 264 265 266 266 267 267 267 267 267 264 260 255 251 250 252 255 260 265 270 272 273 272 269 266 263 261 261 261 262 264 265 267 268 269 271 273 276 278 281 283 284 285 286 286 286 286 286 286 284 282 280 278 276 276 277 279 280 282 284 286 288 291 295 299 303 305 307 308 310 311 313 314 315 316 316 316 317 318 318 319 319
262 263 263 263 264 264 265 265 265 266 267 267 267 266 263 258 253 249 249 251 254 259 264 268 271 272 272 269 265 262 260 260 261 262 263 265 266 268 269 272 275 278 280 283 284 285 286 287 287 287 287 286 285 283 280 278 276 275 276 277 279 281 283 285 286 289 292 296 300 304 306 307 308 309 311 312 313 314 315 315 315 316 317 317 318 318
261 262 263 263 263 264 264 264 265 265 266 267 267 265 260 254 250 248 247 249 252 257 261 265 268 270 270 267 263 260 258 259 260 261 263 264 265 267 270 273 276 279 282 284 285 286 287 287 287 287 287 285 284 281 279 276 275 275 276 278 280 281 283 285 287 290 293 298 301 304 306 307 308 309 311 312 312 313 314 314 315 315 316 316 316 317
260 261 262 263 263 264 264 264 265 266 266 267 266 262 257 252 248 246 246 247 250 255 259 263 266 268 268 266 262 259 257 258 259 261 262 262 264 267 270 273 277 280 282 284 285 286 287 288 288 288 286 285 283 280 278 276 275 275 276 278 280 281 283 285 288 291 295 299 302 304 305 306 308 309 310 311 312 312 313 313 314 314 315 315 316 316
259 259 261 262 263 264 264 265 265 265 266 266 264 260 254 249 246 244 245 246 249 253 258 261 264 265 266 264 261 259 258 257 258 259 260 261 262 265 269 272 276 279 282 284 285 286 287 288 288 288 287 285 282 280 277 276 275 275 276 278 280 282 284 286 290 293 297 300 301 303 304 306 308 309 310 311 311 312 312 313 313 313 314 314 315 316
257 259 260 261 262 263 264 264 264 265 266 265 262 256 251 246 243 242 243 246 249 253 257 260 263 264 264 263 261 259 258 258 258 258 257 258 259 263 266 270 274 277 280 283 284 286 287 287 288 288 287 285 283 280 278 276 275 275 276 278 280 283 285 288 292 295 298 300 301 302 304 306 307 308 309 310 310 311 312 312 312 313 313 314 315 316
257 258 260 261 262 263 264 264 264 264 265 263 258 252 247 243 240 240 242 245 249 253 257 259 261 263 263 263 261 260 259 258 257 256 255 254 256 260 264 269 272 276 278 281 283 285 285 286 287 287 287 286 284 282 279 277 275 275 276 278 281 284 287 290 293 296 298 299 300 302 304 305 307 308 309 309 310 310 311 311 311 312 313 314 315 316
257 258 259 261 262 263 263 263 263 263 262 259 254 248 244 240 238 238 241 245 249 253 256 258 260 261 262 262 261 260 259 258 257 255 253 253 254 257 262 268 271 274 277 279 281 283 284 285 286 286 286 286 284 282 279 277 276 276 277 280 283 286 289 292 294 296 298 299 301 302 304 305 306 307 308 308 309 309 310 310 311 312 313 314 315 316
256 257 259 260 262 263 263 262 262 260 258 255 250 244 240 237 236 237 241 245 249 252 254 256 258 260 261 262 262 260 259 257 256 254 253 252 253 256 261 266 270 273 275 277 279 281 282 283 284 285 285 284 283 280 279 277 277 278 279 282 284 287 290 293 295 296 298 299 301 303 304 305 306 306 307 307 308 309 309 310 311 312 313 314 315 316
255 256 258 260 261 262 262 261 259 257 254 250 245 241 237 235 235 237 241 245 249 252 253 255 257 259 261 262 262 260 258 256 254 253 252 252 253 256 260 265 269 272 274 276 278 279 281 282 283 283 283 282 280 279 278 278 279 280 282 283 286 288 291 293 295 296 298 300 301 303 304 304 305 305 306 307 307 308 309 310 311 312 313 314 315 315
253 255 257 258 259 260 259 257 255 252 249 245 241 237 234 233 234 237 242 246 249 252 253 255 257 259 262 263 262 260 257 254 253 252 252 252 254 257 260 265 268 271 273 275 277 278 279 280 281 281 280 280 279 278 278 279 280 281 283 285 287 289 292 293 295 297 298 300 301 302 303 304 304 305 305 306 307 308 309 310 311 312 313 314 314 315
252 253 255 256 256 256 254 252 249 247 244 241 237 234 232 232 233 237 242 246 250 252 254 256 258 260 262 263 261 259 255 253 252 251 252 253 255 258 261 265 268 270 272 273 275 277 277 278 278 278 278 278 278 278 278 279 280 282 283 285 288 290 292 293 295 297 299 300 301 302 302 303 304 304 305 306 307 308 309 310 311 312 313 313 314 314
251 251 252 253 253 252 250 247 245 242 240 237 234 231 230 231 234 237 242 246 250 253 256 258 260 261 262 261 259 257 254 251 251 251 252 254 256 259 262 265 267 269 271 272 273 275 275 276 276 276 276 276 277 277 278 279 280 282 284 286 288 290 292 294 296 297 299 300 300 301 302 302 303 304 305 306 307 308 309 310 311 312 312 313 313 313
249 249 249 249 249 248 246 243 241 239 236 233 231 230 230 232 235 239 242 246 250 254 257 259 261 261 260 259 257 254 252 250 250 251 253 255 257 260 262 265 267 269 270 271 272 273 273 274 274 274 275 275 275 276 277 279 280 282 285 287 289 291 293 295 296 297 298 299 300 301 301 302 303 304 305 306 307 308 309 310 311 311 312 312 312 312
246 246 246 246 245 244 242 240 238 235 233 231 230 229 230 233 236 240 243 247 250 254 257 259 260 259 258 256 254 252 250 249 250 251 254 256 258 260 262 264 266 268 269 270 271 271 272 272 272 273 273 274 275 276 277 279 281 283 285 287 289 291 293 295 296 297 298 299 300 301 301 302 303 304 305 306 307 308 309 310 310 311 311 311 311 310
243 243 243 243 242 241 239 237 235 232 230 229 229 229 231 235 238 241 244 247 250 253 256 257 257 256 254 252 251 250 249 249 250 252 254 256 258 261 263 264 266 267 268 269 270 270 270 270 271 272 273 274 275 276 278 280 282 284 286 288 290 292 294 295 296 297 298 299 300 301 302 303 304 305 306 307 308 308 309 309 309 310 310 310 309 309
241 241 241 240 239 238 236 234 231 229 228 227 228 230 232 235 239 242 244 247 250 252 254 255 254 252 250 249 248 248 248 248 250 252 254 257 259 261 263 264 265 267 267 268 268 268 269 269 270 271 273 274 276 277 279 281 283 285 287 289 291 293 294 295 296 297 299 300 300 301 302 303 304 305 306 307 307 308 308 308 309 309 308 308 308 307
240 241 240 239 237 234 232 229 227 226 226 226 228 230 232 236 239 241 244 246 249 251 252 252 250 249 248 247 247 247 248 249 250 252 255 257 259 261 263 264 265 266 267 267 267 267 268 269 270 272 273 275 276 278 280 283 285 287 288 290 292 293 294 296 297 298 299 300 301 302 303 304 305 305 306 307 307 307 307 307 307 307 307 306 306 305
240 241 240 238 235 231 228 226 225 225 225 226 228 229 232 235 238 241 243 246 248 249 250 249 248 247 246 246 247 247 248 250 251 253 256 258 260 262 263 264 264 265 265 266 266 266 267 268 270 272 273 275 277 280 282 284 286 288 289 291 292 293 295 296 298 299 300 301 302 303 303 304 305 305 306 306 306 306 306 306 306 306 305 304 304 303
237 238 238 237 233 229 226 225 225 225 226 227 228 229 231 234 237 240 242 244 246 247 248 247 247 247 247 247 248 249 250 252 253 255 257 259 260 261 262 263 263 263 263 264 264 265 266 268 270 272 274 276 279 281 283 285 287 288 290 291 293 294 296 297 298 300 301 302 302 303 304 304 304 305 305 305 305 305 305 305 305 304 303 302 302 301
233 234 234 232 230 227 226 225 226 226 227 227 228 230 232 234 237 240 242 244 246 247 247 248 248 249 249 250 251 252 253 254 256 257 259 260 260 260 261 261 261 261 261 262 263 264 265 267 270 272 275 278 280 282 284 286 287 289 290 292 293 295 297 298 299 301 301 302 303 303 303 304 304 304 304 304 304 304 304 303 303 302 301 300 300 299
230 229 228 228 226 226 226 226 227 227 228 229 230 231 233 235 238 240 243 245 246 247 248 249 250 251 252 253 254 255 256 257 258 259 259 259 259 259 258 258 258 258 258 259 261 263 265 268 271 274 277 280 282 283 285 286 288 289 291 293 294 296 298 299 300 301 302 302 302 303 303 303 303 303 303 303 303 303 302 301 301 300 299 298 298 297
228 226 225 225 225 225 225 226 227 228 229 230 232 233 235 238 240 242 244 246 248 249 250 252 253 254 255 256 257 258 258 259 259 258 258 257 256 256 255 255 255 255 256 257 260 263 267 270 273 275 278 280 282 284 285 287 288 290 292 294 296 297 298 300 301 301 301 302 302 302 302 302 302 302 302 302 301 301 300 300 299 298 297 296 296 295
226 225 224 224 225 225 226 226 227 229 230 232 234 236 238 240 242 244 246 248 250 251 253 254 256 257 258 258 259 259 258 258 257 256 255 254 253 252 252 251 252 253 255 257 260 264 269 272 275 277 278 280 282 284 286 288 289 291 293 295 296 298 299 300 300 300 301 301 301 301 301 301 301 301 300 300 300 299 298 298 297 296 295 295 294 293
226 225 225 225 226 226 227 228 229 231 233 235 237 240 242 244 245 247 249 251 252 254 255 257 258 259 259 259 258 257 256 255 254 252 251 250 249 249 249 249 250 253 256 259 262 265 269 272 275 277 279 281 283 285 287 289 290 292 294 295 297 298 299 299 299 300 300 300 300 300 300 300 300 299 299 298 298 297 296 296 295 294 294 293 292 292
227 227 227 227 228 229 230 231 232 234 236 238 240 243 244 246 248 250 251 253 254 256 257 258 259 260 259 258 256 255 253 252 250 248 247 246 246 247 248 249 251 253 257 261 264 267 270 272 275 278 280 281 283 285 287 289 291 293 294 295 297 297 298 298 299 299 299 299 299 299 299 299 298 298 297 297 296 295 295 294 293 293 292 292 291 291
229 229 229 230 231 232 233 234 235 237 238 240 242 244 246 248 250 251 253 254 256 257 258 259 259 259 257 255 253 251 249 247 246 245 244 244 245 246 248 250 252 256 259 262 265 268 271 273 275 278 280 282 284 285 287 289 291 293 294 295 296 297 298 298 298 298 298 298 298 298 298 297 297 296 296 295 294 294 293 293 292 292 291 291 290 289
231 231 232 232 233 235 236 237 238 239 240 242 244 245 247 249 250 252 253 255 256 257 258 258 258 256 253 251 249 247 245 244 243 243 243 244 245 247 249 252 255 258 261 264 266 269 271 274 276 278 280 282 284 285 287 289 291 292 294 295 296 297 297 298 298 298 298 298 297 297 296 296 295 294 294 293 293 292 292 291 291 291 290 290 289 289
233 233 234 234 235 236 237 238 239 240 241 243 244 246 247 249 250 251 253 255 256 257 257 256 254 252 249 246 244 242 242 241 242 242 243 245 247 249 252 255 257 260 262 264 267 269 271 274 276 278 280 281 283 284 286 288 289 291 293 295 296 296 297 297 297 297 297 297 296 295 295 294 294 293 292 292 291 291 291 291 290 290 289 289 288 288
234 234 235 236 236 237 238 239 240 240 241 243 244 245 247 248 249 251 252 254 255 255 255 253 250 247 244 242 240 239 239 241 242 244 246 248 250 252 255 257 259 261 262 265 267 269 272 274 276 278 279 280 282 283 285 287 289 291 292 294 295 295 296 297 297 296 296 295 295 294 293 293 292 292 291 291 291 290 290 290 289 289 289 288 287 287
234 235 235 236 237 238 239 240 240 241 242 243 244 245 246 247 248 250 251 252 253 253 252 249 246 243 240 239 238 239 240 242 244 246 249 251 253 254 256 258 259 261 263 264 267 269 271 273 275 277 278 279 281 282 284 286 289 291 292 293 294 295 295 296 296 295 295 294 293 293 292 291 291 290 290 290 290 290 289 289 289 288 288 287 287 286
235 235 236 237 238 239 240 240 241 242 243 244 245 245 245 246 248 249 250 251 251 250 248 245 242 240 238 238 238 240 242 244 247 249 251 253 254 255 257 258 259 261 262 264 266 268 271 273 274 276 277 279 281 283 285 287 289 290 292 292 293 293 294 294 294 294 293 292 291 291 290 290 290 289 289 289 289 289 289 289 288 287 287 286 285 285
236 237 238 238 239 240 241 242 243 243 244 244 244 244 245 246 247 248 248 248 248 247 244 242 239 238 238 239 240 242 245 247 249 251 252 253 254 255 256 257 258 260 262 264 266 268 270 272 273 275 277 278 281 283 285 287 288 290 291 291 291 292 292 292 292 292 292 291 290 289 289 289 289 289 289 289 288 288 288 288 287 287 286 285 284 283
238 239 239 240 241 242 243 243 243 244 244 244 244 244 244 245 246 246 247 246 245 244 242 239 238 238 239 241 243 245 247 249 250 251 252 253 253 254 255 256 257 259 262 264 266 268 269 271 273 275 277 279 281 283 285 286 288 289 290 290 290 291 291 291 290 290 290 289 288 288 288 288 288 288 288 288 288 287 287 286 286 285 285 284 283 282
239 240 241 242 242 243 243 244 244 244 244 243 243 244 244 245 245 245 245 244 243 242 240 239 239 240 242 244 246 247 249 250 251 251 251 252 252 253 254 255 257 260 262 264 266 268 269 271 273 275 277 279 281 283 284 286 287 288 288 288 288 288 288 288 288 288 287 287 287 287 287 287 287 287 287 287 287 286 286 285 284 284 283 283 282 282
239 240 241 242 243 243 244 244 244 243 243 243 243 244 244 244 244 244 243 242 241 240 239 239 240 242 244 246 247 248 249 250 250 250 251 251 252 252 254 256 258 261 263 264 266 268 270 272 274 275 278 279 281 282 283 285 286 286 286 286 286 286 285 286 286 286 285 285 285 286 286 286 286 287 286 286 285 285 284 284 283 282 282 281 281 281
240 241 242 243 243 244 244 244 243 243 243 243 243 244 244 244 243 243 242 241 240 239 239 240 241 243 245 246 247 248 248 249 249 249 249 250 251 253 255 257 260 262 264 265 267 268 270 272 274 276 278 279 280 281 282 283 284 284 284 284 284 284 284 284 284 284 284 284 284 285 285 285 285 285 285 285 284 284 283 282 282 282 281 281 280 280
241 241 242 243 243 244 244 244 244 244 243 243 243 244 243 243 242 242 241 240 240 240 240 241 242 243 245 246 246 246 246 247 247 248 249 250 252 254 256 259 261 263 264 266 268 270 271 273 275 276 277 279 279 280 281 282 282 282 282 282 282 282 282 282 282 282 282 283 283 284 284 284 284 284 283 283 283 282 282 281 281 280 280 280 280 280
242 242 243 244 244 244 245 244 244 244 243 243 243 243 243 242 241 241 240 240 239 240 240 241 242 243 243 244 244 245 245 246 247 248 249 251 253 255 258 260 262 263 265 267 269 271 273 274 275 276 277 278 278 279 280 280 280 280 280 280 280 280 280 280 280 281 281 282 282 282 283 283 283 282 282 282 281 281 281 280 280 280 280 280 280 280
242 243 243 244 244 244 244 244 243 243 242 242 242 242 241 241 240 239 239 239 239 239 240 240 241 241 242 243 243 244 244 245 247 249 250 252 254 256 258 260 262 264 266 268 270 272 274 275 276 276 277 277 277 278 278 278 278 279 279 279 279 279 279 279 280 280 280 281 281 281 281 281 281 281 281 280 280 280 279 279 279 279 279 279 279 279
241 242 243 243 243 243 243 242 242 241 241 241 240 240 239 239 238 238 237 237 238 238 239 239 240 240 241 242 243 244 245 246 248 249 251 253 255 257 258 260 262 264 266 268 270 271 273 274 275 276 276 276 276 276 277 277 277 277 278 278 278 278 278 279 279 279 279 280 280 280 280 280 280 279 279 279 279 279 279 279 279 279 279 279 279 279
240 241 241 242 242 241 241 240 239 239 239 239 238 238 237 236 236 236 236 236 237 237 238 238 239 240 241 242 243 244 246 247 249 251 252 254 255 257 259 261 262 264 265 267 268 270 271 273 273 274 274 274 275 275 276 276 276 276 276 276 277 277 278 278 278 278 279 279 279 279 279 279 279 278 278 278 278 278 279 279 279 279 279 279 279 279
239 239 239 239 239 238 238 237 237 236 236 236 235 235 234 234 234 234 235 235 236 237 237 238 239 240 241 242 244 245 247 248 250 252 254 255 257 259 260 262 263 264 265 267 268 268 269 270 271 272 272 272 273 273 274 275 275 275 276 276 276 276 277 277 278 278 278 278 278 278 278 278 278 278 278 278 278 278 278 279 279 279 279 279 279 279
Height
5704 5705 5706 5706 5706 5707 5708 5710 5711 5712 5712 5712 5712 5713 5717 5719 5720 5720 5719 5719 5719 5719 5719 5720 5720 5720 5720 5720 5721 5721 5721 5721 5721 5721 5721 5721 5721 5721 5721 5721 5722 5722 5722 5722 5722 5722 5721 5721 5721 5720 5720 5720 5720 5719 5719 5718 5718 5718 5718 5717 5717 5717 5717 5716 5716 5715 5715 5714 5714 5713 5712 5711 5709 5708 5707 5707 5706 5704 5703 5702 5700 5699 5697 5696 5695 5694
5700 5702 5702 5702 5702 5703 5704 5707 5708 5709 5709 5709 5709 5711 5714 5716 5716 5716 5716 5715 5716 5716 5716 5717 5717 5717 5717 5717 5717 5718 5718 5718 5718 5718 5718 5719 5719 5719 5719 5719 5719 5719 5719 5719 5719 5719 5719 5718 5718 5718 5718 5717 5717 5717 5716 5716 5715 5715 5715 5715 5715 5715 5715 5714 5713 5713 5712 5712 5712 5712 5711 5709 5707 5706 5704 5703 5702 5702 5701 5700 5698 5697 5696 5694 5693 5692
5697 5697 5697 5697 5698 5700 5701 5703 5705 5706 5706 5705 5706 5708 5712 5713 5713 5712 5712 5712 5712 5712 5713 5713 5714 5714 5714 5714 5715 5715 5715 5716 5716 5716 5716 5716 5716 5716 5716 5716 5716 5717 5717 5717 5716 5716 5716 5716 5715 5715 5715 5715 5714 5714 5713 5713 5713 5712 5712 5712 5712 5712 5712 5712 5711 5711 5710 5709 5709 5709 5708 5707 5706 5704 5702 5701 5700 5699 5698 5697 5696 5695 5694 5692 5691 5690
5693 5693 5693 5694 5695 5696 5698 5700 5701 5702 5702 5702 5703 5706 5708 5709 5709 5709 5709 5709 5709 5710 5710 5710 5711 5711 5711 5712 5712 5712 5712 5713 5713 5713 5713 5713 5714 5714 5714 5714 5714 5714 5714 5714 5714 5713 5713 5713 5712 5712 5712 5712 5712 5711 5711 5711 5710 5710 5710 5710 5710 5710 5709 5709 5709 5708 5707 5707 5707 5706 5706 5705 5703 5702 5701 5699 5698 5697 5696 5695 5694 5693 5692 5691 5689 5688
5690 5690 5689 5690 5691 5692 5694 5696 5697 5697 5698 5698 5700 5702 5705 5706 5706 5706 5706 5706 5706 5707 5707 5707 5708 5708 5708 5709 5709 5710 5710 5710 5711 5711 5711 5711 5711 5711 5711 5711 5711 5711 5711 5711 5711 5711 5711 5710 5710 5710 5709 5709 5709 5708 5708 5708 5707 5707 5707 5707 5707 5707 5707 5707 5706 5706 5705 5704 5704 5703 5703 5702 5701 5700 5699 5697 5696 5695 5693 5692 5692 5691 5690 5689 5687 5686
5686 5686 5686 5687 5688 5689 5692 5693 5694 5694 5694 5695 5697 5699 5702 5702 5703 5702 5702 5703 5704 5704 5704 5705 5705 5705 5706 5706 5707 5707 5707 5707 5708 5708 5708 5708 5708 5708 5708 5708 5709 5709 5708 5708 5708 5708 5708 5707 5707 5707 5706 5706 5706 5706 5705 5705 5705 5705 5705 5704 5704 5704 5704 5704 5704 5703 5703 5702 5701 5701 5700 5699 5698 5697 5697 5695 5694 5693 5691 5690 5689 5688 5688 5687 5686 5684
5682 5682 5682 5683 5684 5687 5688 5690 5690 5691 5691 5691 5693 5696 5698 5699 5699 5699 5699 5700 5701 5702 5702 5702 5702 5703 5703 5703 5704 5704 5705 5705 5705 5706 5706 5706 5706 5706 5706 5706 5706 5706 5706 5706 5706 5705 5705 5704 5704 5704 5703 5703 5703 5703 5702 5702 5702 5702 5702 5702 5702 5701 5701 5701 5701 5701 5700 5699 5698 5698 5697 5697 5696 5695 5694 5693 5692 5691 5689 5688 5687 5686 5685 5684 5683 5682
5677 5677 5678 5679 5681 5683 5685 5686 5687 5687 5687 5687 5690 5693 5695 5695 5696 5696 5696 5697 5697 5698 5699 5699 5700 5700 5701 5701 5701 5702 5702 5702 5703 5703 5703 5703 5703 5703 5704 5703 5703 5704 5703 5703 5703 5702 5702 5702 5701 5701 5701 5700 5700 5700 5700 5700 5700 5700 5699 5699 5699 5699 5699 5698 5699 5698 5698 5697 5696 5695 5694 5694 5693 5692 5692 5691 5690 5689 5688 5687 5685 5684 5683 5682 5680 5679
5673 5673 5674 5676 5677 5679 5681 5682 5684 5684 5683 5684 5687 5690 5692 5692 5692 5692 5693 5693 5694 5695 5696 5696 5697 5697 5698 5698 5699 5699 5699 5700 5700 5700 5701 5701 5701 5701 5701 5701 5701 5701 5701 5700 5700 5700 5699 5699 5699 5698 5698 5698 5697 5697 5697 5697 5697 5697 5697 5697 5696 5696 5696 5696 5696 5696 5696 5695 5694 5692 5692 5691 5690 5690 5689 5688 5688 5687 5686 5685 5683 5682 5681 5680 5678 5677
5670 5670 5670 5672 5674 5676 5677 5678 5679 5680 5680 5682 5684 5687 5688 5688 5689 5689 5690 5691 5691 5692 5693 5693 5694 5695 5695 5696 5696 5696 5697 5697 5697 5698 5698 5698 5698 5698 5698 5698 5698 5698 5698 5697 5697 5697 5697 5697 5696 5696 5696 5695 5695 5695 5695 5695 5695 5695 5694 5694 5694 5693 5694 5694 5694 5693 5693 5692 5691 5690 5689 5688 5688 5687 5687 5686 5685 5685 5684 5682 5681 5680 5679 5678 5676 5675
5666 5667 5667 5668 5670 5672 5673 5674 5675 5676 5677 5679 5681 5683 5684 5684 5685 5686 5686 5687 5688 5689 5690 5690 5691 5692 5692 5692 5693 5693 5694 5694 5694 5694 5696 5696 5696 5696 5696 5696 5696 5695 5695 5695 5695 5695 5694 5694 5693 5693 5693 5693 5692 5692 5692 5692 5692 5692 5692 5691 5691 5691 5691 5691 5691 5691 5691 5690 5689 5688 5687 5686 5685 5684 5684 5683 5683 5682 5681 5680 5679 5678 5677 5676 5674 5673
5663 5663 5663 5664 5666 5668 5669 5670 5672 5673 5675 5676 5678 5679 5680 5681 5682 5682 5682 5683 5685 5686 5687 5687 5688 5689 5689 5690 5690 5690 5691 5692 5691 5691 5692 5693 5693 5693 5693 5693 5692 5692 5692 5692 5692 5692 5691 5691 5691 5691 5690 5690 5690 5690 5690 5690 5690 5689 5689 5689 5688 5688 5688 5689 5688 5688 5688 5687 5686 5686 5685 5684 5683 5682 5681 5681 5680 5679 5679 5678 5677 5675 5674 5673 5672 5671
5660 5660 5660 5661 5662 5663 5665 5667 5668 5670 5672 5673 5674 5675 5676 5677 5678 5679 5679 5680 5681 5682 5684 5684 5685 5685 5686 5686 5687 5687 5688 5688 5688 5689 5689 5690 5691 5691 5691 5690 5689 5689 5689 5689 5689 5689 5689 5688 5688 5688 5688 5687 5687 5687 5687 5687 5687 5687 5686 5686 5686 5686 5686 5686 5686 5685 5685 5684 5684 5683 5682 5681 5680 5679 5678 5678 5677 5677 5676 5675 5674 5673 5672 5671 5669 5668
5656 5656 5657 5657 5659 5660 5662 5663 5665 5667 5668 5670 5671 5672 5672 5673 5674 5675 5676 5677 5678 5679 5681 5681 5682 5682 5682 5683 5684 5684 5685 5685 5685 5686 5687 5688 5688 5688 5688 5687 5686 5686 5687 5687 5687 5686 5686 5686 5685 5685 5685 5685 5684 5684 5684 5684 5684 5684 5683 5683 5683 5683 5683 5683 5683 5682 5682 5682 5681 5680 5679 5679 5678 5677 5676 5675 5674 5674 5673 5672 5671 5670 5669 5668 5667 5665
5652 5652 5653 5654 5655 5657 5658 5660 5662 5663 5665 5667 5668 5668 5668 5669 5670 5671 5672 5673 5674 5676 5677 5677 5678 5678 5679 5680 5681 5681 5681 5682 5682 5683 5684 5684 5685 5685 5685 5684 5683 5683 5684 5684 5684 5683 5683 5683 5682 5682 5682 5682 5682 5682 5682 5682 5682 5681 5681 5681 5680 5680 5680 5680 5680 5680 5679 5679 5678 5677 5677 5676 5675 5674 5673 5673 5672 5671 5670 5669 5668 5667 5666 5665 5664 5662
5648 5649 5650 5650 5652 5653 5655 5657 5658 5660 5662 5663 5664 5664 5664 5665 5667 5668 5669 5670 5671 5672 5673 5674 5674 5675 5676 5677 5677 5678 5678 5678 5679 5680 5680 5680 5680 5681 5681 5681 5681 5681 5681 5681 5681 5681 5681 5680 5680 5680 5679 5679 5679 5679 5679 5679 5679 5678 5678 5678 5678 5677 5677 5677 5677 5677 5677 5676 5675 5675 5674 5673 5672 5672 5671 5670 5669 5668 5667 5666 5665 5664 5663 5662 5661 5660
5645 5645 5646 5647 5648 5649 5651 5653 5655 5657 5658 5659 5660 5660 5661 5662 5663 5665 5666 5667 5667 5668 5669 5670 5671 5672 5672 5673 5674 5674 5675 5675 5675 5676 5677 5677 5676 5677 5678 5678 5678 5678 5678 5678 5678 5678 5678 5677 5677 5677 5677 5677 5676 5676 5676 5676 5676 5676 5676 5676 5675 5675 5675 5675 5674 5674 5674 5673 5672 5672 5671 5671 5670 5669 5668 5667 5667 5665 5664 5663 5662 5662 5660 5659 5658 5657
5640 5641 5642 5643 5644 5646 5647 5649 5651 5653 5655 5655 5656 5656 5657 5658 5660 5661 5662 5663 5664 5665 5666 5667 5667 5668 5669 5669 5670 5671 5672 5672 5672 5672 5673 5673 5673 5673 5674 5675 5675 5675 5675 5675 5675 5675 5675 5675 5675 5674 5674 5674 5674 5674 5673 5673 5673 5673 5673 5673 5672 5672 5672 5672 5672 5672 5671 5670 5670 5669 5668 5668 5667 5666 5666 5665 5664 5663 5662 5661 5660 5659 5657 5656 5655 5654
5636 5637 5638 5639 5640 5642 5644 5646 5647 5649 5651 5651 5652 5652 5653 5655 5656 5658 5659 5661 5662 5662 5663 5663 5664 5665 5665 5666 5667 5667 5669 5669 5669 5668 5669 5670 5670 5670 5671 5671 5672 5672 5672 5672 5672 5672 5672 5672 5672 5672 5672 5672 5671 5671 5671 5671 5671 5670 5670 5670 5670 5670 5670 5669 5669 5669 5668 5667 5667 5666 5666 5665 5664 5663 5662 5662 5661 5660 5659 5658 5657 5656 5655 5653 5652 5651
5632 5633 5634 5635 5637 5638 5640 5642 5644 5645 5647 5647 5647 5648 5649 5651 5652 5654 5655 5658 5659 5659 5659 5660 5660 5661 5662 5663 5663 5664 5665 5665 5665 5665 5666 5666 5667 5667 5668 5668 5668 5668 5669 5669 5669 5669 5669 5669 5669 5669 5669 5669 5669 5668 5668 5668 5668 5668 5667 5667 5667 5667 5667 5667 5666 5666 5665 5665 5664 5663 5663 5662 5661 5660 5660 5659 5658 5657 5656 5655 5654 5653 5652 5651 5650 5648
5627 5629 5630 5632 5634 5635 5636 5638 5640 5642 5642 5642 5643 5644 5645 5647 5648 5650 5651 5654 5656 5656 5656 5657 5657 5657 5659 5660 5661 5661 5661 5662 5662 5662 5662 5663 5664 5664 5665 5665 5665 5665 5666 5666 5666 5666 5666 5666 5666 5666 5666 5666 5666 5666 5666 5665 5665 5665 5665 5665 5665 5664 5664 5664 5663 5663 5662 5662 5661 5661 5660 5659 5658 5657 5657 5656 5655 5654 5653 5652 5651 5650 5649 5648 5647 5646
5623 5625 5627 5629 5630 5631 5632 5634 5636 5637 5637 5638 5639 5640 5642 5643 5644 5645 5647 5650 5652 5652 5653 5653 5653 5654 5655 5656 5656 5657 5657 5658 5659 5659 5659 5660 5660 5661 5662 5662 5662 5662 5663 5663 5663 5663 5663 5663 5663 5663 5663 5663 5663 5663 5663 5663 5662 5662 5662 5662 5662 5662 5661 5661 5661 5660 5660 5659 5658 5657 5657 5656 5655 5654 5653 5652 5652 5651 5650 5649 5648 5647 5646 5645 5644 5643
5620 5622 5624 5625 5626 5627 5628 5630 5631 5632 5633 5634 5635 5637 5638 5640 5641 5642 5643 5646 5648 5649 5649 5650 5650 5651 5652 5652 5652 5652 5653 5654 5655 5656 5656 5657 5657 5657 5658 5659 5659 5659 5659 5660 5660 5660 5659 5659 5660 5660 5660 5660 5660 5660 5660 5660 5660 5660 5659 5659 5659 5659 5658 5658 5657 5657 5657 5656 5655 5654 5653 5652 5652 5651 5650 5649 5648 5647 5647 5646 5645 5644 5643 5642 5641 5640
5617 5618 5620 5621 5622 5623 5624 5626 5627 5627 5629 5630 5632 5633 5634 5636 5637 5638 5640 5642 5644 5646 5647 5647 5648 5648 5648 5648 5649 5649 5650 5651 5652 5652 5653 5653 5653 5654 5655 5656 5656 5656 5656 5656 5657 5657 5656 5656 5656 5657 5657 5657 5657 5657 5657 5657 5657 5657 5657 5656 5656 5656 5655 5655 5654 5654 5653 5652 5652 5651 5650 5649 5648 5648 5647 5646 5645 5644 5643 5643 5642 5641 5640 5639 5638 5637
5613 5614 5616 5617 5618 5619 5620 5621 5622 5623 5625 5626 5628 5629 5631 5632 5633 5635 5637 5639 5641 5642 5643 5643 5643 5643 5644 5645 5646 5646 5647 5647 5649 5649 5650 5650 5650 5651 5652 5652 5653 5653 5652 5653 5653 5653 5653 5653 5653 5653 5654 5654 5654 5654 5654 5654 5654 5654 5653 5653 5653 5652 5652 5652 5651 5651 5650 5649 5648 5647 5647 5646 5645 5644 5644 5643 5642 5641 5641 5640 5639 5638 5637 5637 5636 5635
5610 5611 5613 5614 5614 5615 5616 5617 5618 5619 5621 5622 5624 5626 5627 5628 5630 5632 5634 5636 5637 5638 5638 5639 5639 5639 5640 5641 5642 5643 5643 5644 5645 5646 5646 5646 5647 5647 5648 5649 5649 5649 5649 5649 5650 5650 5650 5650 5650 5650 5651 5651 5651 5651 5651 5651 5651 5651 5650 5650 5649 5649 5649 5648 5648 5647 5646 5646 5645 5644 5643 5643 5642 5641 5640 5640 5639 5638 5637 5637 5636 5635 5634 5634 5633 5632
5608 5610 5611 5612 5611 5611 5612 5613 5614 5616 5617 5619 5621 5622 5623 5625 5627 5629 5630 5632 5633 5634 5634 5634 5635 5636 5637 5638 5638 5639 5640 5641 5641 5642 5642 5643 5643 5643 5644 5645 5646 5646 5646 5646 5646 5646 5647 5647 5647 5647 5647 5647 5647 5648 5648 5648 5648 5647 5647 5647 5646 5646 5646 5645 5644 5643 5643 5642 5642 5641 5640 5639 5639 5638 5637 5637 5636 5635 5634 5634 5633 5632 5632 5631 5630 5630
5606 5607 5609 5610 5609 5608 5608 5610 5611 5613 5615 5616 5617 5619 5620 5622 5624 5625 5626 5628 5629 5630 5630 5630 5631 5632 5633 5634 5635 5636 5637 5637 5638 5638 5639 5640 5640 5640 5641 5642 5642 5642 5642 5642 5642 5643 5643 5643 5644 5644 5644 5644 5644 5645 5645 5645 5644 5644 5644 5643 5643 5642 5642 5641 5641 5640 5639 5639 5638 5637 5637 5636 5635 5635 5634 5633 5633 5632 5631 5631 5630 5629 5629 5628 5627 5627
5602 5603 5604 5606 5606 5606 5607 5607 5609 5610 5612 5613 5614 5615 5617 5618 5620 5621 5622 5624 5626 5626 5626 5627 5628 5629 5629 5630 5631 5632 5633 5633 5634 5634 5635 5636 5636 5636 5637 5638 5638 5638 5639 5639 5639 5639 5640 5641 5641 5641 5641 5641 5641 5642 5642 5641 5641 5641 5640 5640 5639 5639 5638 5638 5637 5637 5636 5635 5635 5634 5633 5633 5632 5632 5631 5630 5630 5629 5628 5628 5627 5627 5626 5625 5625 5624
5597 5597 5599 5600 5601 5602 5603 5604 5606 5607 5608 5609 5610 5612 5614 5615 5617 5618 5619 5620 5622 5622 5622 5623 5624 5625 5626 5627 5627 5628 5629 5629 5630 5631 5632 5632 5632 5632 5634 5634 5634 5634 5635 5636 5636 5636 5637 5637 5637 5638 5637 5637 5638 5638 5638 5638 5637 5637 5637 5636 5636 5635 5635 5634 5633 5633 5632 5632 5631 5631 5630 5630 5629 5628 5628 5627 5627 5626 5625 5625 5624 5624 5623 5622 5622 5622
5591 5592 5594 5595 5597 5597 5599 5600 5602 5604 5605 5606 5607 5609 5611 5612 5613 5614 5615 5617 5617 5618 5619 5620 5621 5621 5622 5622 5623 5624 5624 5626 5627 5627 5628 5628 5628 5629 5630 5631 5631 5631 5632 5632 5632 5632 5633 5633 5634 5635 5635 5634 5634 5634 5634 5634 5634 5633 5633 5632 5632 5632 5631 5631 5630 5629 5629 5628 5628 5627 5627 5626 5626 5625 5625 5624 5623 5623 5622 5622 5621 5621 5620 5620 5619 5619
5587 5588 5590 5591 5592 5594 5595 5597 5598 5600 5601 5602 5604 5606 5607 5608 5609 5610 5612 5612 5613 5614 5615 5616 5617 5617 5618 5619 5619 5620 5621 5622 5622 5623 5624 5625 5625 5625 5627 5627 5627 5627 5628 5629 5629 5629 5629 5630 5630 5631 5632 5632 5631 5631 5631 5631 5630 5630 5629 5629 5628 5628 5627 5627 5627 5626 5625 5625 5625 5624 5624 5623 5622 5622 5622 5621 5621 5620 5619 5619 5618 5618 5617 5617 5617 5616
5584 5585 5587 5588 5590 5591 5592 5593 5595 5596 5597 5599 5601 5602 5603 5604 5606 5607 5607 5608 5609 5610 5612 5612 5613 5613 5614 5615 5616 5616 5617 5617 5618 5619 5620 5621 5621 5622 5622 5623 5624 5624 5624 5625 5626 5626 5627 5627 5627 5627 5628 5628 5628 5627 5627 5627 5627 5626 5626 5625 5625 5624 5624 5624 5623 5623 5622 5622 5622 5621 5620 5620 5619 5619 5618 5618 5617 5617 5617 5616 5616 5615 5615 5614 5614 5613
5581 5582 5584 5585 5587 5588 5589 5591 5592 5593 5595 5596 5597 5598 5600 5601 5602 5603 5604 5605 5606 5607 5607 5608 5609 5610 5610 5611 5612 5612 5613 5614 5615 5616 5617 5617 5618 5618 5619 5620 5620 5621 5621 5622 5622 5623 5623 5623 5624 5624 5624 5624 5624 5624 5624 5623 5622 5622 5622 5622 5621 5621 5620 5620 5620 5619 5619 5618 5618 5617 5617 5617 5616 5616 5615 5615 5614 5614 5614 5613 5613 5612 5612 5612 5611 5611
5578 5580 5581 5582 5584 5585 5587 5587 5588 5590 5592 5593 5594 5595 5596 5597 5598 5599 5600 5601 5602 5602 5603 5604 5605 5606 5607 5607 5607 5608 5609 5610 5611 5612 5612 5613 5614 5615 5615 5616 5617 5617 5618 5618 5618 5619 5619 5620 5620 5621 5621 5620 5620 5620 5620 5620 5619 5618 5618 5618 5618 5617 5617 5617 5617 5616 5615 5615 5615 5614 5614 5613 5613 5612 5612 5612 5612 5611 5611 5610 5610 5610 5609 5609 5608 5608
5576 5577 5578 5579 5581 5582 5583 5584 5585 5587 5588 5589 5590 5592 5593 5594 5595 5595 5596 5597 5598 5599 5600 5600 5601 5602 5603 5603 5604 5605 5606 5607 5607 5608 5609 5610 5611 5611 5612 5612 5613 5614 5614 5614 5615 5615 5616 5616 5616 5617 5617 5617 5616 5616 5616 5616 5616 5615 5614 5614 5614 5614 5613 5613 5613 5612 5612 5612 5611 5611 5611 5610 5610 5609 5609 5609 5608 5608 5608 5607 5607 5607 5606 5606 5606 5605
5572 5574 5575 5576 5577 5578 5580 5581 5582 5583 5585 5586 5587 5588 5589 5590 5591 5592 5592 5593 5594 5595 5596 5597 5597 5598 5599 5600 5600 5601 5602 5603 5603 5604 5605 5606 5607 5608 5608 5609 5609 5610 5611 5611 5611 5611 5612 5612 5612 5612 5613 5613 5613 5612 5612 5612 5612 5612 5611 5611 5610 5610 5610 5609 5609 5609 5609 5608 5608 5607 5607 5607 5607 5606 5606 5606 5605 5605 5605 5604 5604 5604 5603 5603 5603 5602
5569 5571 5572 5573 5574 5576 5576 5577 5579 5580 5582 5583 5584 5585 5586 5587 5587 5587 5588 5589 5590 5591 5592 5593 5594 5594 5595 5596 5597 5597 5598 5599 5600 5601 5602 5602 5603 5604 5605 5605 5606 5606 5607 5607 5607 5607 5608 5608 5608 5608 5609 5609 5609 5609 5609 5608 5608 5607 5607 5607 5607 5607 5606 5606 5606 5605 5605 5605 5604 5604 5604 5604 5603 5603 5602 5602 5602 5602 5602 5601 5601 5601 5601 5600 5600 5599
5565 5567 5568 5570 5571 5572 5573 5574 5575 5577 5578 5579 5580 5581 5582 5582 5583 5583 5584 5585 5586 5587 5588 5589 5590 5591 5591 5592 5593 5594 5595 5595 5596 5597 5598 5599 5600 5600 5601 5602 5602 5602 5603 5603 5604 5604 5604 5604 5604 5605 5605 5605 5605 5605 5605 5605 5604 5604 5603 5603 5602 5602 5602 5602 5602 5602 5602 5601 5601 5601 5600 5600 5600 5600 5599 5599 5599 5599 5598 5598 5598 5598 5597 5597 5597 5597
5562 5563 5564 5566 5567 5568 5569 5570 5572 5573 5574 5575 5576 5577 5577 5578 5579 5580 5581 5582 5582 5583 5584 5585 5586 5587 5587 5588 5589 5590 5591 5592 5592 5593 5594 5595 5596 5596 5597 5598 5598 5598 5599 5599 5600 5600 5600 5600 5600 5601 5601 5601 5601 5601 5600 5600 5600 5600 5600 5599 5598 5598 5598 5599 5598 5598 5598 5598 5597 5597 5597 5597 5597 5596 5596 5596 5596 5595 5595 5595 5594 5594 5594 5594 5594 5593
5558 5559 5560 5562 5563 5564 5566 5567 5568 5569 5570 5571 5572 5572 5573 5574 5575 5576 5577 5577 5578 5579 5580 5581 5582 5583 5584 5585 5586 5587 5587 5588 5589 5589 5590 5591 5592 5592 5593 5594 5594 5595 5595 5595 5596 5596 5597 5597 5597 5597 5597 5597 5597 5597 5596 5596 5596 5596 5596 5595 5595 5594 5594 5595 5595 5595 5594 5594 5594 5594 5594 5593 5593 5593 5592 5592 5592 5592 5592 5592 5591 5591 5591 5591 5591 5591
5554 5555 5557 5558 5560 5561 5562 5562 5564 5565 5566 5567 5567 5568 5569 5570 5571 5572 5573 5574 5575 5576 5577 5577 5578 5579 5580 5581 5582 5583 5584 5584 5585 5586 5586 5587 5587 5588 5589 5589 5590 5591 5591 5592 5592 5592 5592 5593 5593 5593 5593 5593 5593 5592 5592 5592 5592 5592 5592 5592 5591 5591 5590 5590 5591 5591 5591 5590 5590 5590 5590 5590 5590 5589 5589 5589 5589 5588 5588 5588 5588 5588 5588 5587 5587 5587
5550 5552 5553 5555 5556 5557 5557 5558 5559 5560 5561 5562 5563 5564 5564 5566 5567 5568 5569 5570 5571 5572 5573 5574 5575 5576 5577 5577 5578 5579 5580 5580 5581 5582 5582 5583 5584 5584 5585 5586 5586 5587 5587 5587 5588 5588 5588 5589 5589 5589 5589 5589 5588 5588 5588 5588 5588 5588 5588 5587 5587 5587 5587 5586 5587 5587 5587 5587 5587 5587 5587 5587 5586 5586 5586 5586 5585 5585 5585 5585 5585 5585 5585 5585 5584 5584
5547 5548 5549 5551 5551 5552 5553 5554 5555 5556 5557 5558 5559 5560 5560 5562 5563 5564 5565 5566 5567 5568 5569 5570 5571 5572 5573 5573 5574 5575 5576 5577 5577 5578 5578 5579 5580 5580 5581 5582 5582 5582 5583 5583 5584 5584 5585 5585 5585 5585 5585 5585 5584 5584 5584 5584 5584 5584 5584 5584 5584 5583 5583 5583 5583 5583 5583 5583 5583 5583 5583 5583 5583 5582 5582 5582 5582 5582 5582 5582 5582 5582 5581 5581 5581 5581
5543 5544 5545 5546 5547 5548 5549 5550 5551 5552 5552 5554 5555 5555 5556 5557 5559 5560 5561 5562 5563 5564 5565 5566 5567 5568 5568 5569 5570 5571 5572 5573 5573 5574 5575 5575 5576 5577 5577 5577 5578 5578 5579 5579 5580 5580 5581 5581 5581 5581 5581 5581 5581 5580 5580 5581 5581 5581 5581 5580 5580 5580 5580 5579 5579 5580 5579 5579 5579 5579 5580 5579 5579 5579 5579 5578 5578 5578 5578 5578 5578 5578 5578 5578 5578 5577
5539 5540 5541 5542 5543 5544 5544 5545 5546 5547 5549 5549 5550 5551 5552 5553 5555 5556 5557 5558 5559 5560 5561 5562 5563 5564 5564 5565 5566 5567 5568 5569 5569 5570 5571 5572 5572 5572 5573 5573 5574 5574 5575 5575 5575 5576 5576 5577 5577 5577 5577 5577 5577 5577 5577 5577 5577 5577 5577 5577 5577 5577 5576 5576 5576 5576 5576 5576 5576 5576 5576 5576 5576 5576 5575 5575 5575 5575 5575 5575 5575 5575 5574 5574 5574 5574
5534 5535 5536 5537 5538 5539 5540 5541 5542 5543 5544 5545 5546 5547 5548 5549 5551 5552 5553 5554 5555 5556 5557 5557 5559 5559 5560 5561 5562 5563 5564 5565 5566 5567 5567 5567 5568 5568 5569 5569 5570 5570 5570 5571 5571 5571 5572 5572 5572 5572 5572 5572 5572 5572 5572 5573 5573 5573 5573 5573 5573 5573 5573 5572 5572 5572 5572 5572 5572 5572 5572 5572 5572 5572 5572 5572 5572 5572 5572 5571 5571 5571 5571 5571 5571 5570
5530 5531 5532 5533 5534 5535 5536 5537 5538 5539 5540 5541 5542 5543 5544 5546 5547 5548 5549 5550 5551 5552 5553 5553 5554 5555 5556 5557 5558 5559 5560 5561 5562 5562 5563 5563 5564 5564 5565 5565 5565 5566 5566 5566 5567 5567 5567 5567 5567 5568 5568 5568 5568 5568 5568 5569 5569 5569 5569 5569 5569 5569 5569 5569 5569 5569 5569 5569 5568 5568 5569 5569 5569 5569 5568 5568 5568 5568 5568 5568 5567 5567 5567 5567 5567 5567
5526 5527 5528 5529 5530 5531 5532 5532 5534 5535 5536 5537 5538 5540 5541 5542 5543 5544 5545 5546 5547 5548 5549 5549 5550 5551 5552 5553 5554 5555 5557 5557 5557 5558 5559 5559 5560 5560 5561 5561 5561 5562 5562 5562 5562 5562 5563 5563 5563 5563 5564 5565 5565 5565 5564 5565 5565 5565 5565 5565 5565 5566 5566 5565 5565 5565 5565 5565 5565 5565 5565 5565 5565 5565 5565 5565 5564 5564 5564 5564 5564 5564 5563 5563 5563 5562
5521 5522 5523 5524 5525 5526 5527 5528 5530 5531 5532 5533 5534 5536 5537 5538 5539 5540 5541 5542 5543 5544 5545 5546 5547 5547 5548 5549 5550 5552 5552 5553 5554 5554 5555 5555 5556 5556 5557 5557 5557 5558 5558 5558 5558 5559 5559 5559 5559 5559 5560 5561 5561 5561 5561 5561 5561 5561 5561 5561 5561 5562 5562 5561 5561 5561 5562 5561 5561 5561 5561 5561 5561 5561 5562 5561 5561 5561 5560 5560 5560 5560 5559 5559 5559 5558
5517 5517 5519 5520 5521 5522 5523 5524 5526 5527 5528 5529 5531 5532 5533 5534 5535 5537 5537 5538 5539 5540 5541 5542 5543 5544 5545 5546 5547 5547 5548 5549 5550 5550 5551 5551 5552 5552 5552 5552 5553 5554 5554 5554 5554 5555 5555 5556 5556 5556 5556 5557 5557 5558 5557 5557 5557 5557 5557 5557 5557 5558 5558 5557 5557 5557 5557 5557 5557 5557 5557 5557 5557 5557 5558 5558 5557 5557 5557 5556 5556 5556 5555 5555 5555 5554